﻿_id,日時,平均風速(m/s),平均風向,最大瞬間風速(m/s),最大風速時風向,気温(℃),湿度(%),10分間移動積算雨量(mm),1時間移動積算雨量(mm),日雨量(mm),累計雨量(mm),日射(日積算)(MJ/m2),日照(日積算)(min),現地気圧(hPa),海面気圧(hPa)
1,2020-08-10T00:00:00,2,南南西,3.6,南南西,26.7,88.5,0,0,0,0,18.38,455,999.8,1013.1
2,2020-08-10T00:01:00,2.1,南南西,3.6,南南西,26.7,88.7,0,0,0,0,0,0,999.8,1013.1
3,2020-08-10T00:02:00,2.2,南南西,4,南南西,26.7,88.7,0,0,0,0,0,0,999.8,1013.1
4,2020-08-10T00:03:00,2.2,南南西,4,南南西,26.8,88.8,0,0,0,0,0,0,999.8,1013.1
5,2020-08-10T00:04:00,2.4,南南西,4,南南西,26.8,88.9,0,0,0,0,0,0,999.8,1013.1
6,2020-08-10T00:05:00,2.5,南南西,4,南南西,26.8,88.8,0,0,0,0,0,0,999.8,1013.1
7,2020-08-10T00:06:00,2.6,南南西,4,南南西,26.9,88.7,0,0,0,0,0,0,999.8,1013.1
8,2020-08-10T00:07:00,2.6,南南西,4,南南西,26.8,88.6,0,0,0,0,0,0,999.8,1013.1
9,2020-08-10T00:08:00,2.5,南南西,4,南南西,26.8,88.5,0,0,0,0,0,0,999.8,1013.1
10,2020-08-10T00:09:00,2.4,南南西,4,南南西,26.8,88.5,0,0,0,0,0,0,999.8,1013.1
11,2020-08-10T00:10:00,2.4,南南西,4,南南西,26.8,88.5,0,0,0,0,0,0,999.7,1013
12,2020-08-10T00:11:00,2.3,南,4,南南西,26.7,88.6,0,0,0,0,0,0,999.7,1013
13,2020-08-10T00:12:00,2.2,南,3.6,南,26.7,88.8,0,0,0,0,0,0,999.7,1013
14,2020-08-10T00:13:00,2.2,南,3.6,南,26.7,88.8,0,0,0,0,0,0,999.7,1013
15,2020-08-10T00:14:00,2.2,南,3.6,南,26.7,88.9,0,0,0,0,0,0,999.7,1013
16,2020-08-10T00:15:00,2,南,3.6,南,26.8,89.2,0,0,0,0,0,0,999.7,1013
17,2020-08-10T00:16:00,2,南,3.6,南,26.8,88.9,0,0,0,0,0,0,999.7,1013
18,2020-08-10T00:17:00,2.2,南南西,3.7,南南西,26.7,88.8,0,0,0,0,0,0,999.8,1013.1
19,2020-08-10T00:18:00,2.2,南南西,3.7,南南西,26.8,89,0,0,0,0,0,0,999.8,1013.1
20,2020-08-10T00:19:00,2.2,南南西,3.7,南南西,26.8,88.9,0,0,0,0,0,0,999.8,1013.1
21,2020-08-10T00:20:00,2.3,南南西,3.7,南南西,26.7,88.8,0,0,0,0,0,0,999.8,1013.1
22,2020-08-10T00:21:00,2.3,南南西,3.7,南南西,26.7,88.8,0,0,0,0,0,0,999.8,1013.1
23,2020-08-10T00:22:00,2.4,南南西,3.7,南南西,26.7,89,0,0,0,0,0,0,999.8,1013.1
24,2020-08-10T00:23:00,2.3,南南西,3.7,南南西,26.6,89.1,0,0,0,0,0,0,999.8,1013.1
25,2020-08-10T00:24:00,2.2,南,3.7,南南西,26.6,89.4,0,0,0,0,0,0,999.8,1013.1
26,2020-08-10T00:25:00,2.3,南,3.7,南南西,26.6,89.6,0,0,0,0,0,0,999.8,1013.1
27,2020-08-10T00:26:00,2.3,南,3.7,南南西,26.6,89.7,0,0,0,0,0,0,999.8,1013.1
28,2020-08-10T00:27:00,2.2,南,3.5,南,26.6,89.8,0,0,0,0,0,0,999.8,1013.1
29,2020-08-10T00:28:00,2,南,3.5,南,26.7,90.1,0,0,0,0,0,0,999.8,1013.1
30,2020-08-10T00:29:00,2,南,3.5,南,26.7,89.8,0,0,0,0,0,0,999.8,1013.1
31,2020-08-10T00:30:00,1.9,南,3.5,南,26.7,89.5,0,0,0,0,0,0,999.8,1013.1
32,2020-08-10T00:31:00,1.9,南,3.5,南,26.6,89.5,0,0,0,0,0,0,999.8,1013.1
33,2020-08-10T00:32:00,1.9,南,3.6,南南西,26.6,89.5,0,0,0,0,0,0,999.8,1013.1
34,2020-08-10T00:33:00,1.8,南,3.6,南南西,26.6,89.6,0,0,0,0,0,0,999.8,1013.1
35,2020-08-10T00:34:00,2,南,3.6,南南西,26.6,89.7,0,0,0,0,0,0,999.8,1013.1
36,2020-08-10T00:35:00,2.1,南南西,3.6,南南西,26.5,89.9,0,0,0,0,0,0,999.8,1013.1
37,2020-08-10T00:36:00,2.1,南南西,3.6,南南西,26.6,90,0,0,0,0,0,0,999.8,1013.1
38,2020-08-10T00:37:00,2.3,南南西,4.2,南南西,26.5,90,0,0,0,0,0,0,999.7,1013
39,2020-08-10T00:38:00,2.5,南南西,4.2,南南西,26.5,90,0,0,0,0,0,0,999.7,1013
40,2020-08-10T00:39:00,2.5,南南西,4.2,南南西,26.5,90.1,0,0,0,0,0,0,999.7,1013
41,2020-08-10T00:40:00,2.6,南南西,4.2,南南西,26.6,90.1,0,0,0,0,0,0,999.7,1013
42,2020-08-10T00:41:00,2.7,南南西,4.2,南南西,26.6,90.1,0,0,0,0,0,0,999.7,1013
43,2020-08-10T00:42:00,2.7,南南西,4.2,南南西,26.6,90,0,0,0,0,0,0,999.7,1013
44,2020-08-10T00:43:00,2.8,南南西,4.2,南南西,26.6,89.9,0,0,0,0,0,0,999.7,1013
45,2020-08-10T00:44:00,2.8,南南西,4.2,南南西,26.6,89.7,0,0,0,0,0,0,999.7,1013
46,2020-08-10T00:45:00,2.8,南南西,4.2,南南西,26.5,89.8,0,0,0,0,0,0,999.7,1013
47,2020-08-10T00:46:00,2.8,南南西,4.2,南南西,26.6,89.9,0,0,0,0,0,0,999.7,1013
48,2020-08-10T00:47:00,2.7,南南西,4,南南西,26.5,89.9,0,0,0,0,0,0,999.8,1013.1
49,2020-08-10T00:48:00,2.7,南南西,4,南南西,26.6,90,0,0,0,0,0,0,999.8,1013.1
50,2020-08-10T00:49:00,2.7,南南西,4,南南西,26.6,89.9,0,0,0,0,0,0,999.7,1013
51,2020-08-10T00:50:00,2.6,南南西,4,南南西,26.6,89.9,0,0,0,0,0,0,999.7,1013
52,2020-08-10T00:51:00,2.6,南南西,4,南南西,26.6,89.8,0,0,0,0,0,0,999.7,1013
53,2020-08-10T00:52:00,2.5,南南西,4,南南西,26.6,89.8,0,0,0,0,0,0,999.7,1013
54,2020-08-10T00:53:00,2.5,南南西,3.8,南,26.5,89.9,0,0,0,0,0,0,999.8,1013.1
55,2020-08-10T00:54:00,2.5,南南西,3.8,南,26.5,89.9,0,0,0,0,0,0,999.8,1013.1
56,2020-08-10T00:55:00,2.4,南南西,3.7,南南西,26.6,90.2,0,0,0,0,0,0,999.8,1013.1
57,2020-08-10T00:56:00,2.5,南南西,4.2,南南西,26.6,90.1,0,0,0,0,0,0,999.8,1013.1
58,2020-08-10T00:57:00,2.5,南南西,4.2,南南西,26.6,90,0,0,0,0,0,0,999.8,1013.1
59,2020-08-10T00:58:00,2.6,南南西,4.2,南南西,26.6,89.9,0,0,0,0,0,0,999.7,1013
60,2020-08-10T00:59:00,2.6,南南西,4.2,南南西,26.6,89.8,0,0,0,0,0,0,999.7,1013
61,2020-08-10T01:00:00,2.7,南南西,4.2,南南西,26.5,89.7,0,0,0,0,0,0,999.7,1013
62,2020-08-10T01:01:00,2.8,南南西,4.7,南南西,26.6,89.8,0,0,0,0,0,0,999.7,1013
63,2020-08-10T01:02:00,3,南南西,4.9,南南西,26.6,89.6,0,0,0,0,0,0,999.7,1013
64,2020-08-10T01:03:00,3.1,南南西,4.9,南南西,26.6,89.5,0,0,0,0,0,0,999.7,1013
65,2020-08-10T01:04:00,3.1,南南西,4.9,南南西,26.6,89.4,0,0,0,0,0,0,999.7,1013
66,2020-08-10T01:05:00,3.2,南南西,4.9,南南西,26.6,89.4,0,0,0,0,0,0,999.7,1013
67,2020-08-10T01:06:00,3.3,南南西,5.2,南南西,26.6,89.3,0,0,0,0,0,0,999.8,1013.1
68,2020-08-10T01:07:00,3.4,南南西,5.2,南南西,26.7,89.2,0,0,0,0,0,0,999.8,1013.1
69,2020-08-10T01:08:00,3.4,南南西,5.2,南南西,26.7,89,0,0,0,0,0,0,999.8,1013.1
70,2020-08-10T01:09:00,3.5,南南西,5.2,南南西,26.7,88.8,0,0,0,0,0,0,999.8,1013.1
71,2020-08-10T01:10:00,3.6,南南西,5.2,南南西,26.7,88.8,0,0,0,0,0,0,999.8,1013.1
72,2020-08-10T01:11:00,3.6,南南西,5.2,南南西,26.7,88.8,0,0,0,0,0,0,999.8,1013.1
73,2020-08-10T01:12:00,3.7,南南西,5.2,南南西,26.7,88.9,0,0,0,0,0,0,999.8,1013.1
74,2020-08-10T01:13:00,3.7,南南西,5.3,南南西,26.7,88.9,0,0,0,0,0,0,999.8,1013.1
75,2020-08-10T01:14:00,3.8,南南西,5.6,南,26.7,88.9,0,0,0,0,0,0,999.7,1013
76,2020-08-10T01:15:00,3.8,南南西,5.6,南,26.7,89,0,0,0,0,0,0,999.7,1013
77,2020-08-10T01:16:00,3.8,南南西,5.6,南,26.7,89,0,0,0,0,0,0,999.7,1013
78,2020-08-10T01:17:00,3.8,南南西,5.6,南,26.7,89,0,0,0,0,0,0,999.7,1013
79,2020-08-10T01:18:00,3.8,南南西,5.6,南,26.6,89.1,0,0,0,0,0,0,999.8,1013.1
80,2020-08-10T01:19:00,3.9,南南西,5.6,南,26.6,89.1,0,0,0,0,0,0,999.7,1013
81,2020-08-10T01:20:00,3.9,南南西,5.6,南,26.6,89.2,0,0,0,0,0,0,999.7,1013
82,2020-08-10T01:21:00,3.9,南南西,5.6,南,26.6,89.2,0,0,0,0,0,0,999.7,1013
83,2020-08-10T01:22:00,4,南南西,5.9,南,26.6,89.3,0,0,0,0,0,0,999.7,1013
84,2020-08-10T01:23:00,4,南南西,5.9,南,26.6,89.4,0,0,0,0,0,0,999.8,1013.1
85,2020-08-10T01:24:00,4,南南西,5.9,南,26.6,89.4,0,0,0,0,0,0,999.8,1013.1
86,2020-08-10T01:25:00,4.1,南南西,6.6,南南西,26.6,89.4,0,0,0,0,0,0,999.8,1013.1
87,2020-08-10T01:26:00,4.2,南南西,6.6,南南西,26.6,89.4,0,0,0,0,0,0,999.8,1013.1
88,2020-08-10T01:27:00,4.2,南南西,6.6,南南西,26.6,89.3,0,0,0,0,0,0,999.8,1013.1
89,2020-08-10T01:28:00,4.3,南南西,6.6,南南西,26.6,89.3,0,0,0,0,0,0,999.8,1013.1
90,2020-08-10T01:29:00,4.3,南南西,6.6,南南西,26.6,89.3,0,0,0,0,0,0,999.8,1013.1
91,2020-08-10T01:30:00,4.2,南南西,6.6,南南西,26.6,89.4,0,0,0,0,0,0,999.8,1013.1
92,2020-08-10T01:31:00,4.1,南南西,6.6,南南西,26.6,89.5,0,0,0,0,0,0,999.8,1013.1
93,2020-08-10T01:32:00,4,南南西,6.6,南南西,26.6,89.5,0,0,0,0,0,0,999.9,1013.2
94,2020-08-10T01:33:00,3.8,南南西,6.6,南南西,26.6,89.7,0,0,0,0,0,0,999.9,1013.2
95,2020-08-10T01:34:00,3.7,南南西,6.6,南南西,26.6,89.6,0,0,0,0,0,0,999.9,1013.2
96,2020-08-10T01:35:00,3.6,南南西,6,南南西,26.6,89.7,0,0,0,0,0,0,999.9,1013.2
97,2020-08-10T01:36:00,3.6,南南西,5.9,南南西,26.6,89.7,0,0,0,0,0,0,999.9,1013.2
98,2020-08-10T01:37:00,3.6,南南西,5.9,南南西,26.6,89.8,0,0,0,0,0,0,999.9,1013.2
99,2020-08-10T01:38:00,3.6,南南西,5.9,南南西,26.5,89.8,0,0,0,0,0,0,999.9,1013.2
100,2020-08-10T01:39:00,3.8,南南西,6,南南西,26.5,90,0,0,0,0,0,0,999.9,1013.2
101,2020-08-10T01:40:00,3.8,南南西,6,南南西,26.5,90.1,0,0,0,0,0,0,1000,1013.3
102,2020-08-10T01:41:00,3.8,南南西,6,南南西,26.5,90.1,0,0,0,0,0,0,1000,1013.3
103,2020-08-10T01:42:00,3.9,南南西,6,南南西,26.5,90.2,0,0,0,0,0,0,1000,1013.3
104,2020-08-10T01:43:00,4,南南西,6,南南西,26.5,90.2,0,0,0,0,0,0,1000,1013.3
105,2020-08-10T01:44:00,4,南南西,6,南南西,26.5,90.3,0,0,0,0,0,0,1000,1013.3
106,2020-08-10T01:45:00,4,南南西,6,南南西,26.5,90.4,0,0,0,0,0,0,1000,1013.3
107,2020-08-10T01:46:00,3.9,南南西,6,南南西,26.5,90.3,0,0,0,0,0,0,1000,1013.3
108,2020-08-10T01:47:00,3.8,南南西,6,南南西,26.5,90.3,0,0,0,0,0,0,1000,1013.3
109,2020-08-10T01:48:00,3.8,南南西,6,南南西,26.5,90.4,0,0,0,0,0,0,1000,1013.3
110,2020-08-10T01:49:00,3.6,南南西,5.1,南南西,26.6,90.4,0,0,0,0,0,0,1000.1,1013.4
111,2020-08-10T01:50:00,3.7,南南西,5.1,南南西,26.5,90.2,0,0,0,0,0,0,1000.1,1013.4
112,2020-08-10T01:51:00,3.7,南南西,5.1,南南西,26.5,90.2,0,0,0,0,0,0,1000.1,1013.4
113,2020-08-10T01:52:00,3.6,南南西,5.1,南南西,26.6,90.3,0,0,0,0,0,0,1000.2,1013.5
114,2020-08-10T01:53:00,3.6,南南西,5.1,南南西,26.6,90.2,0,0,0,0,0,0,1000.2,1013.5
115,2020-08-10T01:54:00,3.6,南南西,5.1,南南西,26.6,90,0,0,0,0,0,0,1000.2,1013.5
116,2020-08-10T01:55:00,3.6,南南西,5.1,南南西,26.6,90.1,0,0,0,0,0,0,1000.2,1013.5
117,2020-08-10T01:56:00,3.5,南南西,5.1,南南西,26.6,90.1,0,0,0,0,0,0,1000.3,1013.6
118,2020-08-10T01:57:00,3.5,南南西,5.1,南南西,26.6,90.1,0,0,0,0,0,0,1000.2,1013.5
119,2020-08-10T01:58:00,3.5,南南西,5.1,南南西,26.6,90,0,0,0,0,0,0,1000.2,1013.5
120,2020-08-10T01:59:00,3.4,南南西,5.1,南南西,26.6,90,0,0,0,0,0,0,1000.2,1013.5
121,2020-08-10T02:00:00,3.2,南南西,4.9,南南西,26.6,89.9,0,0,0,0,0,0,1000.2,1013.5
122,2020-08-10T02:01:00,3.2,南南西,4.9,南南西,26.6,89.9,0,0,0,0,0,0,1000.2,1013.5
123,2020-08-10T02:02:00,3.2,南南西,4.9,南南西,26.6,90.1,0,0,0,0,0,0,1000.2,1013.5
124,2020-08-10T02:03:00,3.3,南南西,5.1,南,26.6,90,0,0,0,0,0,0,1000.2,1013.5
125,2020-08-10T02:04:00,3.3,南南西,5.1,南,26.6,90,0,0,0,0,0,0,1000.2,1013.5
126,2020-08-10T02:05:00,3.2,南南西,5.1,南,26.6,90,0,0,0,0,0,0,1000.2,1013.5
127,2020-08-10T02:06:00,3.3,南南西,5.1,南,26.6,89.9,0,0,0,0,0,0,1000.2,1013.5
128,2020-08-10T02:07:00,3.2,南南西,5.1,南,26.6,89.9,0,0,0,0,0,0,1000.2,1013.5
129,2020-08-10T02:08:00,3.3,南南西,5.1,南,26.6,89.9,0,0,0,0,0,0,1000.1,1013.4
130,2020-08-10T02:09:00,3.3,南南西,5.1,南,26.6,89.8,0,0,0,0,0,0,1000.1,1013.4
131,2020-08-10T02:10:00,3.4,南南西,5.1,南,26.6,89.8,0,0,0,0,0,0,1000.1,1013.4
132,2020-08-10T02:11:00,3.4,南南西,5.1,南,26.6,89.8,0,0,0,0,0,0,1000.1,1013.4
133,2020-08-10T02:12:00,3.4,南南西,5.1,南,26.6,89.8,0,0,0,0,0,0,1000.1,1013.4
134,2020-08-10T02:13:00,3.4,南南西,4.8,南,26.6,89.9,0,0,0,0,0,0,1000.1,1013.4
135,2020-08-10T02:14:00,3.3,南南西,4.8,南,26.6,89.9,0,0,0,0,0,0,1000.1,1013.4
136,2020-08-10T02:15:00,3.4,南南西,4.8,南,26.6,89.9,0,0,0,0,0,0,1000.1,1013.4
137,2020-08-10T02:16:00,3.4,南,4.8,南,26.6,90,0,0,0,0,0,0,1000,1013.3
138,2020-08-10T02:17:00,3.5,南,5.4,南南西,26.6,90,0,0,0,0,0,0,1000,1013.3
139,2020-08-10T02:18:00,3.5,南,5.4,南南西,26.6,90,0,0,0,0,0,0,1000,1013.3
140,2020-08-10T02:19:00,3.5,南,5.4,南南西,26.6,90,0,0,0,0,0,0,1000,1013.3
141,2020-08-10T02:20:00,3.5,南,5.4,南南西,26.6,90,0,0,0,0,0,0,1000,1013.3
142,2020-08-10T02:21:00,3.6,南,5.7,南南西,26.6,90,0,0,0,0,0,0,1000,1013.3
143,2020-08-10T02:22:00,3.7,南,5.7,南南西,26.6,89.9,0,0,0,0,0,0,1000,1013.3
144,2020-08-10T02:23:00,3.7,南,5.7,南南西,26.6,90,0,0,0,0,0,0,1000,1013.3
145,2020-08-10T02:24:00,3.7,南南西,5.7,南南西,26.6,90,0,0,0,0,0,0,1000,1013.3
146,2020-08-10T02:25:00,3.8,南南西,5.7,南南西,26.6,90.1,0,0,0,0,0,0,1000,1013.3
147,2020-08-10T02:26:00,3.8,南南西,5.7,南南西,26.6,90.2,0,0,0,0,0,0,1000,1013.3
148,2020-08-10T02:27:00,3.7,南南西,5.7,南南西,26.6,90.3,0,0,0,0,0,0,1000,1013.3
149,2020-08-10T02:28:00,3.7,南南西,5.7,南南西,26.6,90.3,0,0,0,0,0,0,1000,1013.3
150,2020-08-10T02:29:00,3.8,南南西,5.7,南南西,26.6,90.3,0,0,0,0,0,0,1000,1013.3
151,2020-08-10T02:30:00,3.9,南南西,5.7,南南西,26.6,90.3,0,0,0,0,0,0,1000,1013.3
152,2020-08-10T02:31:00,3.8,南,5.7,南南西,26.6,90.3,0,0,0,0,0,0,999.9,1013.2
153,2020-08-10T02:32:00,3.8,南南西,5.7,南南西,26.6,90.2,0,0,0,0,0,0,1000,1013.3
154,2020-08-10T02:33:00,3.8,南南西,5.7,南南西,26.6,90.2,0,0,0,0,0,0,1000,1013.3
155,2020-08-10T02:34:00,3.9,南南西,5.7,南南西,26.6,90.2,0,0,0,0,0,0,1000,1013.3
156,2020-08-10T02:35:00,3.9,南南西,5.8,南,26.6,90.2,0,0,0,0,0,0,1000,1013.3
157,2020-08-10T02:36:00,4,南南西,5.8,南,26.6,90.2,0,0,0,0,0,0,1000,1013.3
158,2020-08-10T02:37:00,4,南南西,5.8,南,26.6,90.2,0,0,0,0,0,0,1000,1013.3
159,2020-08-10T02:38:00,4,南南西,5.8,南,26.6,90.2,0,0,0,0,0,0,1000,1013.3
160,2020-08-10T02:39:00,4,南南西,5.8,南,26.6,90.2,0,0,0,0,0,0,1000,1013.3
161,2020-08-10T02:40:00,3.9,南南西,5.8,南,26.6,90.2,0,0,0,0,0,0,1000,1013.3
162,2020-08-10T02:41:00,3.9,南南西,5.8,南,26.6,90.2,0,0,0,0,0,0,1000,1013.3
163,2020-08-10T02:42:00,4,南南西,5.8,南,26.6,90.1,0,0,0,0,0,0,1000,1013.3
164,2020-08-10T02:43:00,4.1,南南西,5.8,南,26.6,90.1,0,0,0,0,0,0,1000,1013.3
165,2020-08-10T02:44:00,4,南南西,5.8,南,26.6,90.2,0,0,0,0,0,0,1000,1013.3
166,2020-08-10T02:45:00,3.9,南南西,5.7,南南西,26.6,90.2,0,0,0,0,0,0,1000,1013.3
167,2020-08-10T02:46:00,3.8,南南西,5.7,南南西,26.7,90,0,0,0,0,0,0,1000.1,1013.4
168,2020-08-10T02:47:00,3.8,南南西,5.7,南南西,26.6,89.8,0,0,0,0,0,0,1000.1,1013.4
169,2020-08-10T02:48:00,3.8,南南西,5.7,南南西,26.6,89.8,0,0,0,0,0,0,1000.1,1013.4
170,2020-08-10T02:49:00,3.7,南南西,5.7,南南西,26.6,89.7,0,0,0,0,0,0,1000.1,1013.4
171,2020-08-10T02:50:00,3.7,南南西,5.7,南南西,26.6,89.9,0,0,0,0,0,0,1000.1,1013.4
172,2020-08-10T02:51:00,3.6,南南西,5.7,南南西,26.6,90.1,0,0,0,0,0,0,1000.1,1013.4
173,2020-08-10T02:52:00,3.6,南南西,5.6,南南西,26.6,90,0,0,0,0,0,0,1000.2,1013.5
174,2020-08-10T02:53:00,3.5,南,5.5,南,26.6,90,0,0,0,0,0,0,1000.1,1013.4
175,2020-08-10T02:54:00,3.5,南,5.5,南,26.6,90.2,0,0,0,0,0,0,1000.2,1013.5
176,2020-08-10T02:55:00,3.6,南,5.5,南,26.6,90.2,0,0,0,0,0,0,1000.1,1013.4
177,2020-08-10T02:56:00,3.6,南,5.5,南,26.6,90.1,0,0,0,0,0,0,1000.2,1013.5
178,2020-08-10T02:57:00,3.6,南南西,5.5,南,26.7,90.1,0,0,0,0,0,0,1000.2,1013.5
179,2020-08-10T02:58:00,3.6,南南西,5.5,南,26.7,90,0,0,0,0,0,0,1000.1,1013.4
180,2020-08-10T02:59:00,3.6,南南西,5.5,南,26.7,89.9,0,0,0,0,0,0,1000.1,1013.4
181,2020-08-10T03:00:00,3.5,南南西,5.5,南,26.6,89.9,0,0,0,0,0,0,1000.1,1013.4
182,2020-08-10T03:01:00,3.5,南南西,5.5,南,26.6,90,0,0,0,0,0,0,1000.1,1013.4
183,2020-08-10T03:02:00,3.4,南南西,5.5,南,26.7,90,0,0,0,0,0,0,1000.1,1013.4
184,2020-08-10T03:03:00,3.3,南南西,5.5,南南西,26.6,90,0,0,0,0,0,0,1000.1,1013.4
185,2020-08-10T03:04:00,3.3,南南西,5.5,南南西,26.7,90,0,0,0,0,0,0,1000.1,1013.4
186,2020-08-10T03:05:00,3.2,南南西,4.8,南南西,26.7,90,0,0,0,0,0,0,1000,1013.3
187,2020-08-10T03:06:00,3.2,南南西,4.8,南南西,26.7,89.8,0,0,0,0,0,0,1000,1013.3
188,2020-08-10T03:07:00,3.2,南南西,4.8,南南西,26.7,89.7,0,0,0,0,0,0,1000,1013.3
189,2020-08-10T03:08:00,3.2,南南西,4.8,南南西,26.6,89.8,0,0,0,0,0,0,1000,1013.3
190,2020-08-10T03:09:00,3.2,南南西,4.7,南南西,26.7,89.9,0,0,0,0,0,0,1000,1013.3
191,2020-08-10T03:10:00,3.2,南南西,4.7,南南西,26.7,90,0,0,0,0,0,0,1000,1013.3
192,2020-08-10T03:11:00,3.2,南南西,4.7,南南西,26.7,90,0,0,0,0,0,0,1000.1,1013.4
193,2020-08-10T03:12:00,3.3,南南西,4.7,南南西,26.7,90.1,0,0,0,0,0,0,1000.1,1013.4
194,2020-08-10T03:13:00,3.4,南南西,6.1,南,26.6,89.9,0,0,0,0,0,0,1000,1013.3
195,2020-08-10T03:14:00,3.4,南南西,6.1,南,26.7,90,0,0,0,0,0,0,1000,1013.3
196,2020-08-10T03:15:00,3.2,南南西,6.1,南,26.7,90.1,0,0,0,0,0,0,1000.1,1013.4
197,2020-08-10T03:16:00,3.2,南南西,6.1,南,26.6,90,0,0,0,0,0,0,1000,1013.3
198,2020-08-10T03:17:00,3.2,南南西,6.1,南,26.6,90,0,0,0,0,0,0,1000,1013.3
199,2020-08-10T03:18:00,3.2,南南西,6.1,南,26.6,90.2,0,0,0,0,0,0,1000,1013.3
200,2020-08-10T03:19:00,3.1,南南西,6.1,南,26.7,90.3,0,0,0,0,0,0,1000,1013.3
201,2020-08-10T03:20:00,3.1,南南西,6.1,南,26.7,90.2,0,0,0,0,0,0,1000.1,1013.4
202,2020-08-10T03:21:00,3,南南西,6.1,南,26.7,90.1,0,0,0,0,0,0,1000.1,1013.4
203,2020-08-10T03:22:00,3.1,南南西,6.1,南,26.7,90,0,0,0,0,0,0,1000,1013.3
204,2020-08-10T03:23:00,3.2,南南西,6.3,南南西,26.7,90.1,0,0,0,0,0,0,1000,1013.3
205,2020-08-10T03:24:00,3.4,南南西,6.3,南南西,26.7,90,0,0,0,0,0,0,1000,1013.3
206,2020-08-10T03:25:00,3.5,南南西,6.3,南南西,26.8,90,0,0,0,0,0,0,1000.1,1013.4
207,2020-08-10T03:26:00,3.5,南南西,6.3,南南西,26.7,89.8,0,0,0,0,0,0,1000,1013.3
208,2020-08-10T03:27:00,3.5,南南西,6.3,南南西,26.8,89.8,0,0,0,0,0,0,1000.1,1013.4
209,2020-08-10T03:28:00,3.4,南南西,6.3,南南西,26.8,89.7,0,0,0,0,0,0,1000.1,1013.4
210,2020-08-10T03:29:00,3.6,南南西,6.3,南南西,26.8,89.7,0,0,0,0,0,0,1000.1,1013.4
211,2020-08-10T03:30:00,3.6,南南西,6.3,南南西,26.8,89.7,0,0,0,0,0,0,1000,1013.3
212,2020-08-10T03:31:00,3.6,南南西,6.3,南南西,26.8,89.7,0,0,0,0,0,0,1000,1013.3
213,2020-08-10T03:32:00,3.6,南南西,6.3,南南西,26.8,89.6,0,0,0,0,0,0,1000,1013.3
214,2020-08-10T03:33:00,3.5,南南西,6,南南西,26.8,89.6,0,0,0,0,0,0,1000,1013.3
215,2020-08-10T03:34:00,3.3,南南西,5.3,南,26.8,89.6,0,0,0,0,0,0,1000,1013.3
216,2020-08-10T03:35:00,3.4,南南西,5.3,南,26.9,89.5,0,0,0,0,0,0,1000,1013.3
217,2020-08-10T03:36:00,3.4,南南西,5.3,南,26.8,89.4,0,0,0,0,0,0,1000,1013.3
218,2020-08-10T03:37:00,3.4,南南西,5.3,南,26.8,89.4,0,0,0,0,0,0,1000,1013.3
219,2020-08-10T03:38:00,3.5,南南西,5.3,南,26.8,89.3,0,0,0,0,0,0,1000,1013.3
220,2020-08-10T03:39:00,3.5,南南西,5.3,南,26.8,89.5,0,0,0,0,0,0,1000,1013.3
221,2020-08-10T03:40:00,3.5,南南西,5.3,南,26.8,89.5,0,0,0,0,0,0,1000,1013.3
222,2020-08-10T03:41:00,3.5,南南西,5.3,南,26.8,89.5,0,0,0,0,0,0,1000,1013.3
223,2020-08-10T03:42:00,3.6,南南西,5.3,南,26.9,89.4,0,0,0,0,0,0,1000,1013.3
224,2020-08-10T03:43:00,3.5,南南西,5,南南西,26.9,89.2,0,0,0,0,0,0,1000,1013.3
225,2020-08-10T03:44:00,3.5,南南西,5,南南西,26.9,89.2,0,0,0,0,0,0,1000,1013.3
226,2020-08-10T03:45:00,3.4,南南西,5,南南西,26.9,89.3,0,0,0,0,0,0,1000,1013.3
227,2020-08-10T03:46:00,3.3,南南西,5,南南西,26.9,89.2,0,0,0,0,0,0,1000,1013.3
228,2020-08-10T03:47:00,3.3,南南西,5,南南西,27,89.1,0,0,0,0,0,0,1000,1013.3
229,2020-08-10T03:48:00,3.3,南南西,5,南南西,26.9,88.9,0,0,0,0,0,0,1000,1013.3
230,2020-08-10T03:49:00,3.3,南南西,5.1,南,26.9,88.9,0,0,0,0,0,0,1000,1013.3
231,2020-08-10T03:50:00,3.3,南南西,5.1,南,27,88.8,0,0,0,0,0,0,1000,1013.3
232,2020-08-10T03:51:00,3.4,南南西,6.1,南,27,88.8,0,0,0,0,0,0,1000,1013.3
233,2020-08-10T03:52:00,3.3,南南西,6.1,南,27,88.7,0,0,0,0,0,0,1000,1013.3
234,2020-08-10T03:53:00,3.4,南南西,6.1,南,27,88.7,0,0,0,0,0,0,1000,1013.3
235,2020-08-10T03:54:00,3.4,南南西,6.1,南,27,88.6,0,0,0,0,0,0,999.9,1013.2
236,2020-08-10T03:55:00,3.5,南南西,6.1,南,27,88.6,0,0,0,0,0,0,999.9,1013.2
237,2020-08-10T03:56:00,3.7,南南西,6.1,南,27,88.6,0,0,0,0,0,0,999.9,1013.2
238,2020-08-10T03:57:00,3.8,南南西,6.1,南,27,88.5,0,0,0,0,0,0,999.9,1013.2
239,2020-08-10T03:58:00,3.8,南南西,6.1,南,27,88.5,0,0,0,0,0,0,999.9,1013.2
240,2020-08-10T03:59:00,3.7,南南西,6.1,南,27.1,88.4,0,0,0,0,0,0,1000,1013.3
241,2020-08-10T04:00:00,3.7,南南西,6.1,南,27.1,88.4,0,0,0,0,0,0,999.9,1013.2
242,2020-08-10T04:01:00,3.6,南南西,6.1,南,27,88.3,0,0,0,0,0,0,999.9,1013.2
243,2020-08-10T04:02:00,3.7,南南西,6.1,南,27,88.3,0,0,0,0,0,0,999.9,1013.2
244,2020-08-10T04:03:00,3.6,南南西,6.1,南,27,88.4,0,0,0,0,0,0,999.9,1013.2
245,2020-08-10T04:04:00,3.7,南南西,6.1,南,27.1,88.5,0,0,0,0,0,0,999.9,1013.2
246,2020-08-10T04:05:00,3.6,南南西,6.1,南,27.1,88.4,0,0,0,0,0,0,999.9,1013.2
247,2020-08-10T04:06:00,3.5,南南西,5.8,南,27,88.4,0,0,0,0,0,0,1000,1013.3
248,2020-08-10T04:07:00,3.6,南南西,5.8,南,27.1,88.4,0,0,0,0,0,0,1000,1013.3
249,2020-08-10T04:08:00,3.6,南南西,5.8,南,27.1,88.5,0,0,0,0,0,0,999.9,1013.2
250,2020-08-10T04:09:00,3.8,南南西,5.8,南,27,88.5,0,0,0,0,0,0,999.9,1013.2
251,2020-08-10T04:10:00,3.9,南南西,5.8,南,27.1,88.5,0,0,0,0,0,0,999.9,1013.2
252,2020-08-10T04:11:00,3.9,南南西,5.8,南,27.1,88.4,0,0,0,0,0,0,999.9,1013.2
253,2020-08-10T04:12:00,3.9,南南西,5.8,南,27.1,88.4,0,0,0,0,0,0,999.9,1013.2
254,2020-08-10T04:13:00,3.9,南南西,5.8,南,27.1,88.3,0,0,0,0,0,0,999.9,1013.2
255,2020-08-10T04:14:00,3.9,南南西,5.7,南,27.1,88.2,0,0,0,0,0,0,999.9,1013.2
256,2020-08-10T04:15:00,4,南南西,5.7,南,27.1,88.2,0,0,0,0,0,0,999.9,1013.2
257,2020-08-10T04:16:00,3.9,南南西,5.7,南,27.1,88.2,0,0,0,0,0,0,999.9,1013.2
258,2020-08-10T04:17:00,3.8,南南西,5.6,南,27.1,88.2,0,0,0,0,0,0,999.9,1013.2
259,2020-08-10T04:18:00,3.7,南南西,5.6,南,27.1,88.2,0,0,0,0,0,0,999.9,1013.2
260,2020-08-10T04:19:00,3.7,南南西,5.8,南,27.1,88.2,0,0,0,0,0,0,999.9,1013.2
261,2020-08-10T04:20:00,3.6,南南西,5.8,南,27.1,88.1,0,0,0,0,0,0,999.9,1013.2
262,2020-08-10T04:21:00,3.6,南南西,7,南南西,27.1,88.2,0,0,0,0,0,0,999.8,1013.1
263,2020-08-10T04:22:00,3.8,南南西,7,南南西,27.1,88.2,0,0,0,0,0,0,999.9,1013.2
264,2020-08-10T04:23:00,3.8,南南西,7,南南西,27.1,88.2,0,0,0,0,0,0,999.9,1013.2
265,2020-08-10T04:24:00,3.9,南南西,7,南南西,27.1,88.2,0,0,0,0,0,0,999.9,1013.2
266,2020-08-10T04:25:00,3.9,南南西,7,南南西,27.1,88.2,0,0,0,0,0,0,999.9,1013.2
267,2020-08-10T04:26:00,4,南南西,7,南南西,27.2,88.2,0,0,0,0,0,0,999.9,1013.2
268,2020-08-10T04:27:00,4.2,南南西,7,南南西,27.1,88.2,0,0,0,0,0,0,999.8,1013.1
269,2020-08-10T04:28:00,4.2,南南西,7,南南西,27.2,88.1,0,0,0,0,0,0,999.9,1013.2
270,2020-08-10T04:29:00,4.2,南南西,7,南南西,27.2,88.1,0,0,0,0,0,0,999.9,1013.2
271,2020-08-10T04:30:00,4.3,南南西,7,南南西,27.2,88,0,0,0,0,0,0,999.9,1013.2
272,2020-08-10T04:31:00,4.4,南南西,6.8,南,27.2,87.9,0,0,0,0,0,0,999.9,1013.2
273,2020-08-10T04:32:00,4.4,南南西,6.8,南,27.2,87.8,0,0,0,0,0,0,999.8,1013.1
274,2020-08-10T04:33:00,4.3,南南西,6.8,南,27.2,87.7,0,0,0,0,0,0,999.8,1013.1
275,2020-08-10T04:34:00,4.2,南南西,6.8,南,27.2,87.7,0,0,0,0,0,0,999.8,1013.1
276,2020-08-10T04:35:00,4.2,南南西,6.8,南,27.2,87.7,0,0,0,0,0,0,999.9,1013.2
277,2020-08-10T04:36:00,4.1,南南西,6.8,南,27.2,87.8,0,0,0,0,0,0,999.9,1013.2
278,2020-08-10T04:37:00,4,南南西,6.5,南南西,27.2,87.9,0,0,0,0,0,0,999.9,1013.2
279,2020-08-10T04:38:00,4.1,南南西,6.5,南南西,27.2,87.8,0,0,0,0,0,0,999.8,1013.1
280,2020-08-10T04:39:00,4.1,南南西,6.2,南,27.2,87.8,0,0,0,0,0,0,999.9,1013.2
281,2020-08-10T04:40:00,3.8,南南西,6.1,南南西,27.2,87.8,0,0,0,0,0,0,999.9,1013.2
282,2020-08-10T04:41:00,3.7,南南西,6.1,南南西,27.3,87.8,0,0,0,0,0,0,999.9,1013.1
283,2020-08-10T04:42:00,3.8,南南西,6.2,南南西,27.2,87.7,0,0,0,0,0,0,999.9,1013.2
284,2020-08-10T04:43:00,3.9,南南西,6.4,南南西,27.2,87.7,0,0,0,0,0,0,999.9,1013.2
285,2020-08-10T04:44:00,3.9,南南西,6.4,南南西,27.2,87.8,0,0,0,0,0,0,999.9,1013.2
286,2020-08-10T04:45:00,4,南南西,6.4,南南西,27.3,87.8,0,0,0,0,0,0,999.9,1013.1
287,2020-08-10T04:46:00,4,南南西,6.4,南南西,27.3,87.8,0,0,0,0,0,0,999.9,1013.1
288,2020-08-10T04:47:00,3.9,南南西,6.4,南南西,27.2,87.8,0,0,0,0,0,0,999.9,1013.2
289,2020-08-10T04:48:00,3.8,南南西,6.4,南南西,27.2,87.9,0,0,0,0,0,0,999.9,1013.2
290,2020-08-10T04:49:00,3.6,南南西,6.4,南南西,27.2,87.9,0,0,0,0,0,0,999.9,1013.2
291,2020-08-10T04:50:00,3.8,南南西,6.4,南南西,27.2,87.9,0,0,0,0,0,0,999.9,1013.2
292,2020-08-10T04:51:00,3.9,南南西,6.4,南南西,27.2,87.9,0,0,0,0,0,0,999.8,1013.1
293,2020-08-10T04:52:00,3.7,南南西,6.4,南南西,27.2,88,0,0,0,0,0,0,999.8,1013.1
294,2020-08-10T04:53:00,3.5,南南西,6,南,27.3,88,0,0,0,0,0,0,999.9,1013.1
295,2020-08-10T04:54:00,3.4,南南西,5.8,南南西,27.3,88,0,0,0,0,0,0,999.9,1013.1
296,2020-08-10T04:55:00,3.4,南南西,5.8,南南西,27.3,87.9,0,0,0,0,0,0,999.8,1013
297,2020-08-10T04:56:00,3.4,南南西,5.8,南南西,27.2,88,0,0,0,0,0,0,999.8,1013.1
298,2020-08-10T04:57:00,3.4,南南西,5.8,南南西,27.2,88,0,0,0,0,0,0,999.9,1013.2
299,2020-08-10T04:58:00,3.5,南南西,5.8,南南西,27.2,88,0,0,0,0,0,0,999.9,1013.2
300,2020-08-10T04:59:00,3.7,南南西,6.1,南南西,27.3,88.1,0,0,0,0,0,0,999.9,1013.1
301,2020-08-10T05:00:00,3.7,南南西,6.1,南南西,27.3,88.1,0,0,0,0,0,0,999.9,1013.1
302,2020-08-10T05:01:00,3.6,南南西,6.1,南南西,27.3,88.1,0,0,0,0,0,0,999.9,1013.1
303,2020-08-10T05:02:00,3.7,南南西,6.1,南南西,27.3,88,0,0,0,0,0,0,999.9,1013.1
304,2020-08-10T05:03:00,3.8,南南西,6.1,南南西,27.3,88,0,0,0,0,0,0,999.9,1013.1
305,2020-08-10T05:04:00,3.9,南南西,6.1,南南西,27.2,88.1,0,0,0,0,0,0,999.9,1013.2
306,2020-08-10T05:05:00,3.9,南南西,6.4,南南西,27.2,88.2,0,0,0,0,0,0,999.9,1013.2
307,2020-08-10T05:06:00,4,南南西,6.4,南南西,27.3,88.2,0,0,0,0,0,0,999.9,1013.1
308,2020-08-10T05:07:00,4,南南西,6.4,南南西,27.3,88.1,0,0,0,0,0,0,999.9,1013.1
309,2020-08-10T05:08:00,3.9,南南西,6.4,南南西,27.3,88.1,0,0,0,0,0,0,999.9,1013.1
310,2020-08-10T05:09:00,3.9,南南西,6.4,南南西,27.3,88.1,0,0,0,0,0,0,1000,1013.3
311,2020-08-10T05:10:00,3.9,南南西,6.4,南南西,27.3,88,0,0,0,0,0,0,1000,1013.3
312,2020-08-10T05:11:00,4,南南西,6.4,南南西,27.3,87.9,0,0,0,0,0,0,1000,1013.3
313,2020-08-10T05:12:00,4,南南西,6.4,南南西,27.3,87.9,0,0,0,0,0,0,1000,1013.3
314,2020-08-10T05:13:00,3.9,南南西,6.4,南南西,27.4,87.8,0,0,0,0,0,0,1000,1013.2
315,2020-08-10T05:14:00,4,南南西,6.5,南南西,27.4,87.6,0,0,0,0,0,0,1000,1013.2
316,2020-08-10T05:15:00,4,南南西,6.5,南南西,27.4,87.4,0,0,0,0,0,0,1000,1013.2
317,2020-08-10T05:16:00,3.9,南南西,6.5,南南西,27.4,87.3,0,0,0,0,0,0,1000,1013.2
318,2020-08-10T05:17:00,3.8,南南西,6.5,南南西,27.4,87.4,0,0,0,0,0,0,1000,1013.2
319,2020-08-10T05:18:00,3.9,南南西,6.7,南南西,27.4,87.3,0,0,0,0,0,0,1000,1013.2
320,2020-08-10T05:19:00,4,南南西,6.7,南南西,27.4,87.4,0,0,0,0,0,0,1000,1013.2
321,2020-08-10T05:20:00,4.1,南南西,7.1,南南西,27.4,87.3,0,0,0,0,0,0,1000.1,1013.3
322,2020-08-10T05:21:00,4,南南西,7.1,南南西,27.4,87.3,0,0,0,0,0,0,1000.1,1013.3
323,2020-08-10T05:22:00,4,南南西,7.1,南南西,27.4,87.2,0,0,0,0,0,0,1000.1,1013.3
324,2020-08-10T05:23:00,4.1,南南西,7.1,南南西,27.4,87.2,0,0,0,0,0,0,1000.1,1013.3
325,2020-08-10T05:24:00,4,南南西,7.1,南南西,27.4,87.2,0,0,0,0,0,0,1000.2,1013.4
326,2020-08-10T05:25:00,4.1,南南西,7.1,南南西,27.4,87.2,0,0,0,0,0,0,1000.2,1013.4
327,2020-08-10T05:26:00,4.2,南南西,7.1,南南西,27.4,87.1,0,0,0,0,0,0,1000.2,1013.4
328,2020-08-10T05:27:00,4.2,南南西,7.1,南南西,27.5,87.1,0,0,0,0,0,0,1000.2,1013.4